User: anonymous   Login
Location: Unspecified
(0.0000°N, 0.0000°E)
Time: 02:14:50
(UTC+00:00)
Language:

USA 155 - Orbit

View from above orbital plane
View from above orbital plane
View from above satellite
View from above satellite

Ground track
Ground track

The orbit data is extracted from the following two-line orbital elements,

1 26635U 00080A   21013.46269075 0.00000000  00000-0  00000-0 0    09
2 26635   9.2857  29.8038 0014383 186.3086 173.6859  1.00273100    09
Epoch (UTC): 13 January 2021 11:06:16
Eccentricity: 0.0014383
inclination: 9.2857°
perigee height: 35725 km
apogee height: 35846 km
right ascension of ascending node: 29.8038°
argument of perigee: 186.3086°
revolutions per day: 1.00273100
mean anomaly at epoch: 173.6859°
orbit number at epoch: 0

The dashed part of the orbit path shows where the satellite is in the earth's shadow,  

DLR